WXM80 ListenWXM80 Stop

You find our weather info also at:

UK Metoffice

WeatherCloud

Weather Underground

Northeastern Weather Network

AWEKAS

Citizen Weather Observer Program (CWOP)

HAMweather, WeatherForYou, PWS Weather


Weather Underground History page Text

Daily Summary for December 8, 2017 Units:  Metric    English   Both
« Previous Day
Next Day »
Daily Weekly Monthly Yearly Custom
  High: Low: Average:
Temperature: -17.8 °C 2.2 °C 3.2 °C
Dew Point: -17.8 °C -5.9 °C -4.8 °C
Humidity: Humidity % 51 % 56 %
Wind Speed: 0 km/h 0 km/h 4.2 km/h
Wind Gust: 0 km/h - -
Wind:- - West
Pressure: 0 hPa 1014.1 hPa -
Precipitation: 0 mm    
Historical Graphs
 
 
Tabular Data for December 8, 2017
Time Temperature Dew Point Pressure Wind Wind Speed Wind Gust Humidity Rainfall Rate (Hourly)
-17.8 °C -17.8 °C 0 hPa Calm     Humidity % 0 mm
00:14 4.8 °C -1.8 °C 1016.5 hPa West 11.3 km/h 16.7 km/h 62 % 0 mm
00:24 4.8 °C -1.9 °C 1016.8 hPa SW 13.5 km/h 16.1 km/h 62 % 0 mm
00:29 4.7 °C -2.2 °C 1016.5 hPa WSW 15 km/h 27.8 km/h 61 % 0 mm
00:39 4.7 °C -2.4 °C 1016.5 hPa WSW 7.1 km/h 18.5 km/h 60 % 0 mm
00:45 4.7 °C -2.4 °C 1016.5 hPa SW 7.2 km/h 16.7 km/h 60 % 0 mm
00:50 4.7 °C -2.2 °C 1016.1 hPa West 5.1 km/h 13 km/h 61 % 0 mm
01:05 4.5 °C -2.8 °C 1016.1 hPa West 6.6 km/h 13 km/h 59 % 0 mm
01:10 4.4 °C -2.4 °C 1016.1 hPa WSW 9.5 km/h 18.5 km/h 61 % 0 mm
01:15 4.4 °C -2.7 °C 1016.1 hPa WNW 11.3 km/h 20.9 km/h 60 % 0 mm
01:20 4.3 °C -3.2 °C 1016.1 hPa West 9.8 km/h 22.2 km/h 58 % 0 mm
01:25 4.3 °C -3.5 °C 1016.1 hPa West 9.2 km/h 16.7 km/h 57 % 0 mm
01:30 4.3 °C -3.3 °C 1016.5 hPa WNW 12.7 km/h 25.7 km/h 58 % 0 mm
01:35 4.2 °C -3.1 °C 1016.5 hPa SW 5.8 km/h 22.2 km/h 59 % 0 mm
01:40 4.2 °C -3.1 °C 1016.5 hPa West 9 km/h 18.5 km/h 59 % 0 mm
01:45 4.2 °C -3.4 °C 1016.5 hPa West 9.3 km/h 18.5 km/h 58 % 0 mm
01:50 4.1 °C -3.2 °C 1016.5 hPa NW 9 km/h 18.5 km/h 59 % 0 mm
01:55 4.1 °C -3.2 °C 1016.5 hPa WSW 10.1 km/h 16.1 km/h 59 % 0 mm
02:05 4 °C -3.6 °C 1016.8 hPa West 7.4 km/h 13 km/h 58 % 0 mm
02:06 4 °C -3.8 °C 1016.8 hPa West 9.8 km/h 13 km/h 57 % 0 mm
02:11 3.9 °C -3.8 °C 1016.8 hPa West 9.7 km/h 14.5 km/h 57 % 0 mm
02:16 3.9 °C -3.9 °C 1016.8 hPa West 10.6 km/h 16.7 km/h 57 % 0 mm
02:21 3.8 °C -4.2 °C 1016.8 hPa WSW 12.2 km/h 22.2 km/h 56 % 0 mm
02:36 3.8 °C -4.2 °C 1017.2 hPa WNW 3.7 km/h 13 km/h 56 % 0 mm
02:41 3.7 °C -4.3 °C 1016.8 hPa West 10.3 km/h 16.7 km/h 56 % 0 mm
02:46 3.7 °C -4.6 °C 1017.2 hPa SW 8.4 km/h 18.5 km/h 55 % 0 mm
02:51 3.6 °C -4.6 °C 1017.2 hPa West 9.3 km/h 18.5 km/h 55 % 0 mm
02:56 3.6 °C -4.7 °C 1017.2 hPa WSW 7.7 km/h 11.1 km/h 55 % 0 mm
03:01 3.6 °C -4.4 °C 1017.2 hPa WNW 8.9 km/h 16.7 km/h 56 % 0 mm
03:07 3.5 °C -4.2 °C 1017.2 hPa West 6.9 km/h 11.1 km/h 57 % 0 mm
03:12 3.4 °C -4.1 °C 1017.2 hPa WSW 6.9 km/h 11.1 km/h 58 % 0 mm
03:17 3.4 °C -4.6 °C 1017.2 hPa SSW 4.3 km/h 9.3 km/h 56 % 0 mm
03:27 3.3 °C -4.9 °C 1017.2 hPa WNW 9.7 km/h 13 km/h 55 % 0 mm
03:37 3.2 °C -5.2 °C 1017.5 hPa WSW 16.6 km/h 20.9 km/h 54 % 0 mm
03:42 3.2 °C -5.5 °C 1017.5 hPa WSW 8.7 km/h 18.5 km/h 53 % 0 mm
03:57 3.1 °C -5.1 °C 1017.2 hPa WSW 11.3 km/h 16.7 km/h 55 % 0 mm
04:03 3 °C -5.2 °C 1017.2 hPa WSW 6.8 km/h 9.3 km/h 55 % 0 mm
04:08 3 °C -5.2 °C 1017.2 hPa West 1.8 km/h 5.6 km/h 55 % 0 mm
04:13 2.9 °C -5 °C 1017.5 hPa West 5.6 km/h 11.1 km/h 56 % 0 mm
04:18 2.8 °C -5.3 °C 1017.5 hPa SW 5.6 km/h 14.8 km/h 55 % 0 mm
04:23 2.8 °C -5.3 °C 1017.5 hPa West 6.4 km/h 13 km/h 55 % 0 mm
04:28 2.8 °C -5.4 °C 1017.5 hPa West 6.9 km/h 11.3 km/h 55 % 0 mm
04:33 2.8 °C -5.4 °C 1017.8 hPa West 9.3 km/h 22.2 km/h 55 % 0 mm
04:38 2.7 °C -5.4 °C 1017.8 hPa West 2.9 km/h 16.7 km/h 55 % 0 mm
04:43 2.7 °C -5.4 °C 1017.5 hPa WSW 8.7 km/h 18.5 km/h 55 % 0 mm
04:48 2.7 °C -5.4 °C 1017.5 hPa West 7.1 km/h 13 km/h 55 % 0 mm
04:53 2.7 °C -5.4 °C 1017.5 hPa WSW 6 km/h 11.1 km/h 55 % 0 mm
04:58 2.7 °C -5.5 °C 1017.8 hPa WNW 6.9 km/h 14.8 km/h 55 % 0 mm
05:03 2.7 °C -5.5 °C 1017.8 hPa West 4.8 km/h 11.1 km/h 55 % 0 mm
05:08 2.6 °C -5.6 °C 1017.5 hPa West 1.8 km/h 5.6 km/h 55 % 0 mm
05:23 2.6 °C -5.3 °C 1017.5 hPa WNW 4.3 km/h 11.1 km/h 56 % 0 mm
05:28 2.6 °C -5.3 °C 1017.8 hPa West 4.2 km/h 11.1 km/h 56 % 0 mm
05:33 2.5 °C -5.4 °C 1017.8 hPa WNW 9.8 km/h 18.5 km/h 56 % 0 mm
05:38 2.5 °C -5.4 °C 1017.8 hPa SW 4.5 km/h 13 km/h 56 % 0 mm
05:41 2.5 °C -5.4 °C 1017.8 hPa WSW 4.5 km/h 9.3 km/h 56 % 0 mm
05:51 2.5 °C -5.4 °C 1018.2 hPa West 7.7 km/h 14.8 km/h 56 % 0 mm
05:56 2.4 °C -5.2 °C 1017.8 hPa WNW 5 km/h 11.1 km/h 57 % 0 mm
06:02 2.4 °C -5.2 °C 1017.8 hPa West 2.4 km/h 7.4 km/h 57 % 0 mm
06:12 2.4 °C -5.3 °C 1017.8 hPa WSW 2.3 km/h 5.6 km/h 57 % 0 mm
06:17 2.4 °C -5.3 °C 1017.8 hPa West 3.7 km/h 8 km/h 57 % 0 mm
06:22 2.3 °C -5.3 °C 1017.8 hPa WNW 2.7 km/h 6.4 km/h 57 % 0 mm
06:27 2.3 °C -5.4 °C 1017.8 hPa WNW 7.1 km/h 20.4 km/h 57 % 0 mm
06:32 2.3 °C -5.2 °C 1017.8 hPa WNW 8.7 km/h 18.5 km/h 58 % 0 mm
06:37 2.3 °C -5.2 °C 1017.5 hPa WNW 4.7 km/h 13 km/h 58 % 0 mm
06:47 2.3 °C -5.2 °C 1017.8 hPa NW 3.7 km/h 9.3 km/h 58 % 0 mm
06:52 2.3 °C -5.4 °C 1017.5 hPa NW 2.9 km/h 5.6 km/h 57 % 0 mm
06:57 2.2 °C -5.2 °C 1017.8 hPa NNW 7.9 km/h 18.5 km/h 58 % 0 mm
07:07 2.2 °C -5.2 °C 1018.2 hPa WSW 1.6 km/h 7.4 km/h 58 % 0 mm
07:12 2.2 °C -5.3 °C 1018.2 hPa WNW 3.7 km/h 11.3 km/h 58 % 0 mm
07:17 2.2 °C -5.3 °C 1017.8 hPa NW 5.8 km/h 7.4 km/h 58 % 0 mm
07:22 2.2 °C -5 °C 1018.2 hPa WSW 1.6 km/h 9.7 km/h 59 % 0 mm
07:32 2.2 °C -5 °C 1018.5 hPa WNW 4.5 km/h 11.3 km/h 59 % 0 mm
07:37 2.2 °C -5 °C 1018.5 hPa West 0.8 km/h 9.3 km/h 59 % 0 mm
07:42 2.2 °C -5 °C 1018.2 hPa NW 6 km/h 9.3 km/h 59 % 0 mm
07:47 2.2 °C -5 °C 1018.5 hPa WSW 5.3 km/h 13 km/h 59 % 0 mm
07:52 2.3 °C -5.2 °C 1018.5 hPa WNW 2.9 km/h 5.6 km/h 58 % 0 mm
08:12 2.3 °C -4.9 °C 1018.5 hPa NW 4 km/h 7.4 km/h 59 % 0 mm
08:23 2.3 °C -5.1 °C 1018.2 hPa WSW 2.6 km/h 13 km/h 58 % 0 mm
08:28 2.3 °C -5.1 °C 1018.2 hPa West 2.1 km/h 9.3 km/h 58 % 0 mm
08:33 2.4 °C -5.1 °C 1018.2 hPa WNW 0.8 km/h 6.4 km/h 58 % 0 mm
08:38 2.4 °C -5.1 °C 1018.5 hPa West 5.1 km/h 11.1 km/h 58 % 0 mm
08:48 2.4 °C -5.1 °C 1018.5 hPa WSW 7.2 km/h 9.3 km/h 58 % 0 mm
08:53 2.4 °C -4.8 °C 1018.5 hPa WSW 5.8 km/h 11.1 km/h 59 % 0 mm
08:58 2.4 °C -4.8 °C 1018.5 hPa WNW 5.5 km/h 7.4 km/h 59 % 0 mm
09:03 2.4 °C -4.8 °C 1018.8 hPa West 6.4 km/h 9.7 km/h 59 % 0 mm
09:08 2.4 °C -4.6 °C 1018.8 hPa West 2.9 km/h 5.6 km/h 60 % 0 mm
09:13 2.4 °C -4.8 °C 1018.5 hPa NW 5.8 km/h 9.3 km/h 59 % 0 mm
09:18 2.5 °C -4.7 °C 1018.8 hPa WNW 4.7 km/h 14.8 km/h 59 % 0 mm
09:28 2.6 °C -4.6 °C 1019.2 hPa West 5.6 km/h 11.3 km/h 59 % 0 mm
09:38 2.7 °C -4.5 °C 1019.2 hPa West 5.8 km/h 8 km/h 59 % 0 mm
09:43 2.8 °C -4.2 °C 1018.8 hPa WNW 1.8 km/h 3.7 km/h 60 % 0 mm
09:59 3.1 °C -4.4 °C 1018.8 hPa NW 3.7 km/h 7.4 km/h 58 % 0 mm
10:19 3.2 °C -4.5 °C 1018.8 hPa WNW 5.8 km/h 9.7 km/h 57 % 0 mm
10:29 3.3 °C -4.7 °C 1018.8 hPa WNW 1.9 km/h 7.4 km/h 56 % 0 mm
10:34 3.3 °C -4.2 °C 1018.8 hPa WNW 2.4 km/h 5.6 km/h 58 % 0 mm
10:39 3.3 °C -4.7 °C 1018.8 hPa NW 3.9 km/h 6.4 km/h 56 % 0 mm
10:44 3.3 °C -4.4 °C 1018.2 hPa WNW 4 km/h 8 km/h 57 % 0 mm
10:49 3.3 °C -4.4 °C 1018.5 hPa NW 4.7 km/h 9.7 km/h 57 % 0 mm
10:59 3.3 °C -4.4 °C 1018.5 hPa WNW 3.1 km/h 7.4 km/h 57 % 0 mm
11:04 3.4 °C -4.1 °C 1018.5 hPa WNW 5.1 km/h 8 km/h 58 % 0 mm
11:09 3.4 °C -4.5 °C 1018.8 hPa WNW 0.8 km/h 7.4 km/h 56 % 0 mm
11:19 3.6 °C -4.2 °C 1018.5 hPa WNW 6.9 km/h 9.3 km/h 57 % 0 mm
11:24 3.6 °C -4.6 °C 1018.2 hPa NW 3.7 km/h 9.3 km/h 55 % 0 mm
11:29 3.6 °C -4.4 °C 1018.2 hPa WSW 1.8 km/h 9.3 km/h 56 % 0 mm
11:34 3.6 °C -4.6 °C 1017.8 hPa West 4.5 km/h 9.3 km/h 55 % 0 mm
11:39 3.7 °C -4.3 °C 1017.5 hPa WSW 1.6 km/h 5.6 km/h 56 % 0 mm
11:54 3.8 °C -4.4 °C 1017.8 hPa WNW 5 km/h 9.3 km/h 55 % 0 mm
11:59 3.8 °C -4.4 °C 1017.8 hPa WNW 6.4 km/h 13 km/h 55 % 0 mm
12:05 3.8 °C -4.6 °C 1017.8 hPa NW 6.3 km/h 11.3 km/h 54 % 0 mm
12:10 3.9 °C -4.3 °C 1017.5 hPa West 0.3 km/h 1.9 km/h 55 % 0 mm
12:15 4 °C -4 °C 1017.8 hPa SW 3.9 km/h 9.3 km/h 56 % 0 mm
12:20 4.1 °C -3.9 °C 1017.8 hPa WSW 5.5 km/h 11.3 km/h 56 % 0 mm
12:25 4.2 °C -4.1 °C 1017.5 hPa WNW 6 km/h 12.9 km/h 55 % 0 mm
12:45 4.3 °C -4.7 °C 1017.2 hPa WNW 1.4 km/h 5.6 km/h 52 % 0 mm
12:50 4.3 °C -4.7 °C 1017.2 hPa NW 8.9 km/h 11.3 km/h 52 % 0 mm
12:55 4.3 °C -5 °C 1017.2 hPa West 3.2 km/h 6.4 km/h 51 % 0 mm
13:00 4.3 °C -4.4 °C 1017.2 hPa WSW 6.9 km/h 11.1 km/h 53 % 0 mm
13:05 4.3 °C -4.4 °C 1017.2 hPa SSW 2.4 km/h 5.6 km/h 53 % 0 mm
13:10 4.3 °C -4.2 °C 1017.2 hPa West 1.9 km/h 6.4 km/h 54 % 0 mm
13:20 4.4 °C -4.4 °C 1017.2 hPa WSW 6.9 km/h 9.7 km/h 53 % 0 mm
13:26 4.4 °C -4.6 °C 1017.2 hPa WSW 1.6 km/h 8 km/h 52 % 0 mm
13:31 4.4 °C -4.6 °C 1017.2 hPa West 1.8 km/h 5.6 km/h 52 % 0 mm
13:36 4.5 °C -4.5 °C 1017.2 hPa West 1.6 km/h 4.8 km/h 52 % 0 mm
13:41 4.5 °C -4.8 °C 1017.2 hPa West 8 km/h 11.3 km/h 51 % 0 mm
13:46 4.5 °C -4.8 °C 1017.2 hPa WSW 3.2 km/h 9.7 km/h 51 % 0 mm
13:51 4.4 °C -4.8 °C 1017.2 hPa SW 4.8 km/h 9.7 km/h 51 % 0 mm
13:55 4.4 °C -4.6 °C 1017.2 hPa SW 3.4 km/h 5.6 km/h 52 % 0 mm
14:05 4.4 °C -4.6 °C 1016.8 hPa Calm     52 % 0 mm
14:11 4.4 °C -3.8 °C 1016.8 hPa SW 1.6 km/h 4.8 km/h 55 % 0 mm
14:16 4.4 °C -4.6 °C 1016.8 hPa Calm   6.4 km/h 52 % 0 mm
14:21 4.4 °C -4.1 °C 1016.8 hPa West 1.6 km/h 4.8 km/h 54 % 0 mm
14:31 4.3 °C -4.7 °C 1016.5 hPa WSW 3.2 km/h 6.4 km/h 52 % 0 mm
14:36 4.3 °C -4.4 °C 1016.5 hPa WSW 4.8 km/h 8 km/h 53 % 0 mm
14:41 4.2 °C -4.3 °C 1016.8 hPa West 1.6 km/h 3.2 km/h 54 % 0 mm
14:46 4.2 °C -4.3 °C 1016.5 hPa West 1.6 km/h 6.4 km/h 54 % 0 mm
14:51 4.2 °C -4.6 °C 1016.5 hPa Calm   3.2 km/h 53 % 0 mm
14:56 4.1 °C -4.4 °C 1016.5 hPa Calm   4.8 km/h 54 % 0 mm
15:01 4.1 °C -4.7 °C 1016.5 hPa Calm   1.9 km/h 53 % 0 mm
15:06 4.1 °C -4.4 °C 1016.8 hPa West 2.7 km/h 5.6 km/h 54 % 0 mm
15:11 4 °C -4.7 °C 1016.8 hPa West 1 km/h 3.2 km/h 53 % 0 mm
15:16 4 °C -4.7 °C 1016.8 hPa WNW 2.4 km/h 2.4 km/h 53 % 0 mm
15:21 3.9 °C -4.6 °C 1016.8 hPa WSW 2.6 km/h 5.6 km/h 54 % 0 mm
15:26 3.9 °C -4.6 °C 1016.8 hPa SW 2.6 km/h 2.6 km/h 54 % 0 mm
15:36 3.8 °C -4.6 °C 1016.5 hPa Calm     54 % 0 mm
15:41 3.8 °C -4.7 °C 1016.5 hPa SW 1.3 km/h 3.7 km/h 54 % 0 mm
15:46 3.7 °C -4.7 °C 1016.5 hPa SW 1.6 km/h 3.7 km/h 54 % 0 mm
15:51 3.7 °C -4.7 °C 1016.8 hPa Calm     54 % 0 mm
16:01 3.7 °C -4.6 °C 1016.8 hPa SW 2.3 km/h 5.6 km/h 55 % 0 mm
16:06 3.6 °C -4.8 °C 1016.8 hPa SW 0.5 km/h 1.9 km/h 54 % 0 mm
16:16 3.6 °C -4.7 °C 1016.5 hPa Calm     55 % 0 mm
16:21 3.5 °C -4.7 °C 1016.5 hPa Calm     55 % 0 mm
16:26 3.5 °C -4.7 °C 1016.5 hPa Calm     55 % 0 mm
16:36 3.4 °C -4.8 °C 1016.5 hPa SW 0.2 km/h 1.9 km/h 55 % 0 mm
16:41 3.4 °C -4.8 °C 1016.5 hPa Calm     55 % 0 mm
16:46 3.4 °C -4.8 °C 1016.5 hPa SW 0.5 km/h 1.9 km/h 55 % 0 mm
16:51 3.4 °C -4.8 °C 1016.5 hPa Calm     55 % 0 mm
16:56 3.3 °C -4.8 °C 1016.5 hPa Calm     55 % 0 mm
17:01 3.3 °C -4.8 °C 1016.5 hPa Calm     55 % 0 mm
17:11 3.3 °C -4.7 °C 1016.5 hPa SW 0.6 km/h 3.7 km/h 56 % 0 mm
17:16 3.3 °C -4.7 °C 1016.5 hPa Calm     56 % 0 mm
17:21 3.3 °C -4.7 °C 1016.8 hPa SW 0.8 km/h 1.9 km/h 56 % 0 mm
17:26 3.3 °C -4.7 °C 1016.5 hPa SW 0.2 km/h 1.9 km/h 56 % 0 mm
17:31 3.2 °C -4.7 °C 1016.8 hPa SW 0.5 km/h 3.7 km/h 56 % 0 mm
17:36 3.2 °C -4.7 °C 1016.8 hPa SW 0.3 km/h 3.7 km/h 56 % 0 mm
17:41 3.2 °C -4.7 °C 1016.8 hPa Calm   3.7 km/h 56 % 0 mm
18:01 3.2 °C -4.8 °C 1016.8 hPa SW 4.3 km/h 5.6 km/h 56 % 0 mm
18:06 3.2 °C -4.8 °C 1016.5 hPa WSW 0.8 km/h 3.7 km/h 56 % 0 mm
18:11 3.2 °C -4.8 °C 1016.5 hPa SSW 3.5 km/h 5.6 km/h 56 % 0 mm
18:16 3.2 °C -4.8 °C 1016.1 hPa SSW 1 km/h 3.7 km/h 56 % 0 mm
18:21 3.2 °C -4.8 °C 1016.1 hPa SW 3.9 km/h 5.6 km/h 56 % 0 mm
18:26 3.2 °C -4.8 °C 1015.8 hPa SW 0.6 km/h 1.9 km/h 56 % 0 mm
18:31 3.2 °C -4.8 °C 1015.8 hPa SSW 2.1 km/h 3.7 km/h 56 % 0 mm
18:41 3.2 °C -4.8 °C 1015.8 hPa SSW 1.6 km/h 5.6 km/h 56 % 0 mm
18:47 3.2 °C -4.8 °C 1015.8 hPa SSW 0.5 km/h 5.6 km/h 56 % 0 mm
18:52 3.2 °C -4.6 °C 1015.8 hPa SW 1.9 km/h 3.7 km/h 57 % 0 mm
19:01 3.1 °C -5.1 °C 1016.1 hPa WSW 3.7 km/h 9.3 km/h 55 % 0 mm
19:06 3.1 °C -5.1 °C 1016.1 hPa WSW 2.4 km/h 7.4 km/h 55 % 0 mm
19:11 3.1 °C -5.1 °C 1016.1 hPa SW 0.5 km/h 3.7 km/h 55 % 0 mm
19:16 3.1 °C -5.1 °C 1015.8 hPa SW 2.4 km/h 5.6 km/h 55 % 0 mm
19:26 3.1 °C -5.1 °C 1015.5 hPa SW 0.8 km/h 3.7 km/h 55 % 0 mm
19:31 3.1 °C -5.1 °C 1015.5 hPa SW 2.9 km/h 5.6 km/h 55 % 0 mm
19:41 3.1 °C -5.6 °C 1015.5 hPa SSW 1.6 km/h 5.6 km/h 53 % 0 mm
19:51 3.1 °C -5.6 °C 1015.5 hPa West 0.3 km/h 3.7 km/h 53 % 0 mm
19:56 3.1 °C -5.6 °C 1015.5 hPa WSW 3.2 km/h 7.4 km/h 53 % 0 mm
20:02 3.1 °C -5.6 °C 1015.8 hPa WSW 1 km/h 3.7 km/h 53 % 0 mm
20:07 3 °C -5.7 °C 1015.8 hPa Calm   3.7 km/h 53 % 0 mm
20:12 3 °C -5.4 °C 1015.8 hPa WSW 5.6 km/h 11.3 km/h 54 % 0 mm
20:17 3 °C -5.4 °C 1015.8 hPa WSW 3.7 km/h 7.4 km/h 54 % 0 mm
20:22 3 °C -5.4 °C 1015.8 hPa West 1.6 km/h 5.6 km/h 54 % 0 mm
20:27 3 °C -5.4 °C 1015.5 hPa WSW 6 km/h 8 km/h 54 % 0 mm
20:37 3 °C -5.2 °C 1015.5 hPa WSW 0.8 km/h 5.6 km/h 55 % 0 mm
20:42 3 °C -5.2 °C 1015.1 hPa West 1.8 km/h 5.6 km/h 55 % 0 mm
20:47 3 °C -4.9 °C 1015.1 hPa SW 1 km/h 3.7 km/h 56 % 0 mm
20:52 3 °C -4.7 °C 1015.1 hPa NW 1.3 km/h 5.6 km/h 57 % 0 mm
20:57 3.1 °C -4.7 °C 1015.1 hPa WNW 5.3 km/h 12.9 km/h 57 % 0 mm
21:07 3.1 °C -4.9 °C 1014.8 hPa West 3.1 km/h 7.4 km/h 56 % 0 mm
21:12 3 °C -4.9 °C 1014.8 hPa West 5.8 km/h 8 km/h 56 % 0 mm
21:32 3 °C -5.4 °C 1014.8 hPa West 1.9 km/h 7.4 km/h 54 % 0 mm
21:38 3 °C -5.4 °C 1014.8 hPa West 4.8 km/h 9.7 km/h 54 % 0 mm
21:48 3 °C -5.4 °C 1015.1 hPa SW 6.4 km/h 11.1 km/h 54 % 0 mm
21:58 2.9 °C -5.9 °C 1015.1 hPa WNW 1.1 km/h 5.6 km/h 52 % 0 mm
22:03 2.9 °C -5.7 °C 1015.1 hPa WSW 7.9 km/h 12.9 km/h 53 % 0 mm
22:08 2.9 °C -5.8 °C 1015.1 hPa West 3.2 km/h 5.6 km/h 53 % 0 mm
22:14 2.9 °C -5.8 °C 1015.5 hPa WNW 3.2 km/h 11.3 km/h 53 % 0 mm
22:19 2.9 °C -5.8 °C 1015.1 hPa Calm   3.7 km/h 53 % 0 mm
22:24 2.8 °C -5.6 °C 1015.1 hPa West 0.5 km/h 3.7 km/h 54 % 0 mm
22:25 2.8 °C -5.3 °C 1015.1 hPa WSW 3.5 km/h 5.6 km/h 55 % 0 mm
22:28 2.8 °C -5.3 °C 1015.1 hPa WSW 3.9 km/h 9.7 km/h 55 % 0 mm
22:33 2.8 °C -5.6 °C 1015.5 hPa West 2.1 km/h 4.8 km/h 54 % 0 mm
22:38 2.8 °C -5.6 °C 1015.5 hPa West 4.2 km/h 11.1 km/h 54 % 0 mm
22:43 2.8 °C -5.6 °C 1015.5 hPa WNW 0.6 km/h 3.7 km/h 54 % 0 mm
22:48 2.8 °C -5.6 °C 1015.5 hPa WNW 0.5 km/h 3.7 km/h 54 % 0 mm
22:59 2.7 °C -5.7 °C 1015.5 hPa SW 5.6 km/h 11.3 km/h 54 % 0 mm
23:04 2.7 °C -5.4 °C 1015.1 hPa West 3.1 km/h 5.6 km/h 55 % 0 mm
23:09 2.7 °C -5.4 °C 1015.1 hPa WSW 5.5 km/h 5.6 km/h 55 % 0 mm
23:14 2.7 °C -5.4 °C 1014.8 hPa West 3.1 km/h 5.6 km/h 55 % 0 mm
23:19 2.7 °C -5.2 °C 1014.8 hPa West 2.4 km/h 5.6 km/h 56 % 0 mm
23:24 2.7 °C -5.5 °C 1014.8 hPa West 3.9 km/h 9.3 km/h 55 % 0 mm
23:29 2.7 °C -5.5 °C 1014.4 hPa WNW 0.5 km/h 7.4 km/h 55 % 0 mm
23:39 2.7 °C -5.7 °C 1014.4 hPa SW 2.6 km/h 9.7 km/h 54 % 0 mm
23:44 2.6 °C -5.8 °C 1014.1 hPa West 4 km/h 5.6 km/h 54 % 0 mm
23:49 2.6 °C -5.3 °C 1014.4 hPa West 6 km/h 9.7 km/h 56 % 0 mm
23:54 2.6 °C -5.3 °C 1014.1 hPa WNW 2.1 km/h 9.3 km/h 56 % 0 mm
23:55 2.6 °C -5.3 °C 1014.1 hPa West 3.9 km/h 9.3 km/h 56 % 0 mm
Crab Meadow Weather
Compliments of Weather Underground - 2.5 mb

Script developed by  Jim McMurry - jmcmurry@mwt.net Adapted for the template by  Wim van der Kuil - Leuven-Template.eu

Recycling: The average American uses seven trees a year in paper, wood, and other products made from trees. This amounts to about 2,000,000,000 trees per year!